Location: Mason-Dixon Star Party
(40.0361°N, 76.9958°W)
Time: 08:19:16
(UTC-05:00)

Daily predictions for brighter satellites

Satellite Brightness Start Highest point End
(mag) Time Altitude Azimuth Time Altitude Azimuth Time Altitude Azimuth
Aureole 3 4.4 17:07:51 10° N 17:12:45 80° W 17:19:00 10° S
Meteor 2-12 Rocket 4.5 17:09:34 10° S 17:15:40 86° E 17:21:45 10° N
COSMOS 2406 4.0 17:10:11 10° NNW 17:15:49 59° WSW 17:21:23 10° S
MSX 4.2 17:11:21 10° S 17:17:06 74° WSW 17:22:54 10° NNW
ERBS 2.9 17:14:26 10° NW 17:17:48 63° SW 17:21:10 10° SSE
YAOGAN 1 3.5 17:14:48 10° SE 17:18:25 26° ENE 17:22:03 10° NNE
COSMO-SKYMED 1 4.0 17:16:02 10° NE 17:19:09 19° E 17:22:15 10° SE
CSL-04 Debris 4.2 17:15:44 10° SSE 17:21:05 66° ENE 17:26:27 10° N
BREEZE-M DEB (TANK) 2.3 17:25:49 10° SW 17:27:50 41° SE 17:29:58 12° ENE
Cosmos 2346 Rocket 4.4 17:21:56 10° N 17:28:05 75° E 17:34:17 10° SSE
Cosmos 1833 Rocket 3.3 17:24:15 10° N 17:29:21 34° ENE 17:34:25 10° ESE
Tsikada Rocket 4.3 17:25:11 10° N 17:31:20 75° W 17:37:29 10° S
USA 161 4.1 17:34:12 10° NW 17:34:55 11° WNW 17:35:38 10° W
Meteor 1-14 Rocket 4.2 17:29:46 10° N 17:35:27 76° E 17:40:59 10° SSE
Cosmos 2297 4.2 17:30:21 10° S 17:35:38 41° ESE 17:40:59 10° NE
BREEZE M DEB (TANK) 4.5 17:35:16 10° W 17:37:32 17° SW 17:39:12 10° S
Cosmos 2221 Rocket 4.3 17:34:49 10° SSE 17:38:44 32° E 17:42:41 10° NNE
Cosmos 2278 Rocket 2.4 17:33:22 10° SSW 17:39:02 76° WNW 17:44:45 10° NNE
Cosmos 1703 Rocket 3.7 17:34:58 10° S 17:39:19 54° E 17:43:40 10° NNE
CORIOLIS 4.1 17:34:56 10° SSE 17:40:21 75° ENE 17:45:49 10° N
CZ-2C R/B 4.3 17:36:46 10° SSW 17:41:19 35° W 17:46:00 10° NNW
IRS-1A Rocket 4.3 17:44:08 10° SSE 17:49:55 73° ENE 17:55:37 10° N
Cosmos 1763 Rocket 4.0 17:45:01 10° NNW 17:50:08 63° WSW 17:55:11 10° S
Meteor 1-28 Rocket 3.3 17:50:10 10° N 17:53:54 78° W 17:57:35 10° SSW
Cosmos 44 Rocket 4.0 17:50:35 10° NNW 17:55:01 34° NE 17:58:41 14° ESE
CZ-2C R/B 3.7 17:50:55 10° NNE 17:55:26 90° ESE 18:00:00 10° SSW
Okean 2 Rocket 3.6 17:52:41 10° N 17:56:55 37° ENE 18:01:06 10° SE
Cosmos 1606 2.5 17:56:12 10° S 17:59:58 84° E 18:03:45 10° N
Cosmos 1441 Rocket 4.1 17:57:05 10° SSE 18:00:32 29° E 18:01:48 24° ENE
GPS 2-05 Rocket1 4.3 17:58:52 10° SW 18:01:27 23° SSE 18:02:46 18° SE
Cosmos 292 Rocket 4.2 17:58:09 10° N 18:02:36 37° ENE 18:07:00 10° SE
Cosmos 1464 Rocket 3.9 17:57:56 10° S 18:03:55 62° E 18:10:00 10° NNE
Cosmos 405 3.8 18:01:32 10° NNE 18:04:45 30° ENE 18:07:56 10° SE
Cosmos 1908 Rocket 4.0 18:00:56 10° NNW 18:05:14 62° W 18:09:29 10° S
Lacrosse 5 4.1 18:04:06 10° NNW 18:05:53 12° N 18:07:41 10° NNE
Landsat 4 3.8 18:02:21 10° N 18:06:08 80° WNW 18:09:56 10° SSW
Cosmos 1484 Rocket 4.3 18:03:18 10° SSW 18:06:54 38° W 18:10:36 10° NNW
COSMOS 2455 4.4 18:01:50 10° WSW 18:07:06 31° NW 18:12:25 10° NNE
SKYMED 2 3.5 18:03:06 10° NNE 18:07:26 66° ESE 18:11:44 10° S
CZ-4 R/B 2.0 18:04:47 10° S 18:08:34 54° W 18:12:21 10° NNW
MTI 3.8 18:07:22 11° N 18:10:30 82° WNW 18:13:44 10° SSW
MOS 1 4.2 18:05:23 10° SSE 18:11:02 71° ENE 18:16:44 10° N
SL-27 R/B 3.2 18:08:17 10° NNW 18:11:33 52° WSW 18:14:49 10° S
EO 1 Del DPAF 3.1 18:08:15 12° NNE 18:11:50 70° ESE 18:15:37 10° S
Cosmos 540 Rocket 3.3 18:08:37 10° NNW 18:13:49 80° ENE 18:18:58 10° SSE
METEOR-M 4.0 18:08:43 10° SSE 18:14:03 85° ENE 18:19:25 10° NNW
MONITOR-E 3.9 18:12:16 10° SSE 18:15:18 70° ENE 18:18:20 10° N
USA 234 3.4 18:11:19 21° ENE 18:15:43 58° SE 18:22:07 10° SSW
Cosmos 968 Rocket 3.9 18:12:58 10° S 18:17:45 39° ESE 18:19:33 30° ENE
Cosmos 1503 Rocket 4.1 18:12:59 10° SSW 18:18:16 80° WNW 18:23:31 10° NNE
Cosmos 44 3.2 18:14:31 10° NNW 18:19:10 58° NE 18:22:41 18° SE
Cosmos 2082 Rocket 2.1 18:14:05 10° NNW 18:19:48 84° ENE 18:25:27 10° SSE
Meteor 2-6 Rocket 4.1 18:16:46 10° S 18:22:12 89° E 18:27:48 10° N
ERS-2 2.6 18:22:28 10° S 18:26:06 62° WSW 18:29:46 10° NNW
Okean 1-7 3.5 18:23:32 10° SSW 18:27:53 60° W 18:32:14 10° N
BREEZE-M DEB (TANK) 3.5 18:25:44 10° NW 18:27:37 26° NNE 18:27:37 26° NNE
Cosmos 1602 3.5 18:24:34 10° N 18:28:24 72° E 18:32:14 10° SSE
ALOS 2.1 18:27:04 10° SSE 18:31:44 78° ENE 18:36:25 10° N
DMSP B5D1-3 4.4 18:28:50 12° NNE 18:33:34 73° ESE 18:38:41 10° S
Cosmos 1782 4.3 18:30:04 10° SSW 18:33:49 37° WNW 18:37:34 10° N
Cosmos 405 Rocket 2.7 18:31:03 10° SSW 18:34:50 77° W 18:36:32 31° N
FengYun 1-2 T 4.3 18:39:45 28° SE 18:42:28 51° ENE 18:47:50 10° N
CZ-4C R/B 2.8 18:47:23 10° NNW 18:54:34 68° NE 18:58:04 36° SE
Meteor 1-27 Rocket 3.9 18:48:55 10° SSW 18:54:49 78° W 19:00:48 10° N
COSMO-SKYMED 1 4.1 18:51:26 10° N 18:55:24 35° WNW 18:59:21 10° SW
Meteor 1-5 Rocket 4.4 18:50:41 10° N 18:54:42 47° NNE 18:54:42 47° NNE
FENGYUN 3A 4.0 18:51:16 10° S 18:56:39 66° W 19:02:02 10° NNW
SPOT 3 Rocket 4.5 18:57:45 10° S 19:02:46 48° W 19:07:48 10° NNW
USA 229 DEB 3.6 18:58:08 10° SSW 19:04:44 61° ESE 19:05:14 59° E
USA 229 3.6 18:58:14 10° SSW 19:04:50 60° ESE 19:05:17 59° E
Cosmos 1833 Rocket 4.3 19:08:13 10° NW 19:13:12 33° WSW 19:18:11 10° SSW
Cosmos 2369 Rocket 3.7 19:09:16 10° S 19:11:27 23° S 19:11:27 23° S
Nadezhda 4 Rocket 4.2 19:09:53 10° NNW 19:15:58 68° W 19:22:00 10° S
OAO 3 Rocket 4.4 19:18:09 10° WSW 19:21:32 35° SSW 19:21:32 35° SSW
Timation 2 Rocket 4.2 19:22:50 10° NNW 19:29:34 71° WSW 19:31:12 51° S
Cosmos 1092 Rocket 4.1 19:27:56 10° NNW 19:34:03 71° W 19:40:11 10° S
Thor Agena Rocket 4.4 19:36:31 45° WSW 19:36:31 45° WSW 19:40:20 10° SSW
USA 234 4.0 19:58:41 45° NW 19:58:41 45° NW 20:04:42 10° W
CZ-4C R/B 4.5 20:36:43 10° NW 20:42:52 28° WSW 20:43:23 28° WSW
